| time (UTC) | temp F | wind direction | speed MPH | gust MPH | rain 1hr in | rain 24hr in | rain mn in | humidity % | barometer mb |
| 20260504232317 | 74 | 221 | 1.0 | 7.0 | 0.00 | 0.00 | 0.00 | 50 | 1005.9 |
| 20260504231322 | 74 | 149 | 2.0 | 7.0 | 0.00 | 0.00 | 0.00 | 50 | 1005.9 |
| 20260504230328 | 74 | 136 | 3.0 | 9.0 | 0.00 | 0.00 | 0.00 | 50 | 1005.9 |
| 20260504225331 | 74 | 221 | 4.0 | 9.0 | 0.00 | 0.00 | 0.00 | 48 | 1006.1 |
| 20260504224318 | 74 | 135 | 3.0 | 11.0 | 0.00 | 0.00 | 0.00 | 49 | 1006.4 |
| 20260504223343 | 74 | 215 | 5.0 | 12.0 | 0.00 | 0.00 | 0.00 | 49 | 1006.6 |
| 20260504222330 | 74 | 207 | 3.0 | 7.0 | 0.00 | 0.00 | 0.00 | 50 | 1006.6 |
| 20260504221314 | 74 | 154 | 3.0 | 7.0 | 0.00 | 0.00 | 0.00 | 50 | 1006.4 |
| 20260504220322 | 72 | 197 | 3.0 | 9.0 | 0.00 | 0.00 | 0.00 | 52 | 1006.6 |
| 20260504215325 | 72 | 221 | 3.0 | 9.0 | 0.00 | 0.00 | 0.00 | 52 | 1006.5 |
| 20260504214328 | 72 | 223 | 4.0 | 10.0 | 0.00 | 0.00 | 0.00 | 52 | 1006.8 |
| 20260504213354 | 72 | 174 | 4.0 | 16.0 | 0.00 | 0.00 | 0.00 | 51 | 1007.1 |
| 20260504212319 | 72 | 235 | 6.0 | 16.0 | 0.00 | 0.00 | 0.00 | 51 | 1007.1 |
| 20260504211322 | 72 | 247 | 5.0 | 14.0 | 0.00 | 0.00 | 0.00 | 54 | 1007.1 |
| 20260504210332 | 71 | 130 | 5.0 | 9.0 | 0.00 | 0.00 | 0.00 | 55 | 1007.3 |
| 20260504205314 | 70 | 203 | 2.0 | 9.0 | 0.00 | 0.00 | 0.00 | 58 | 1007.3 |
| 20260504204339 | 70 | 147 | 4.0 | 9.0 | 0.00 | 0.00 | 0.00 | 58 | 1007.3 |
| 20260504203323 | 69 | 194 | 5.0 | 12.0 | 0.00 | 0.00 | 0.00 | 59 | 1008.0 |
| 20260504202346 | 69 | 232 | 4.0 | 10.0 | 0.00 | 0.00 | 0.00 | 61 | 1008.2 |
| 20260504201330 | 69 | 233 | 6.0 | 10.0 | 0.00 | 0.00 | 0.00 | 62 | 1008.4 |
| 20260504200334 | 68 | 228 | 5.0 | 9.0 | 0.00 | 0.00 | 0.00 | 65 | 1008.4 |
| 20260504195337 | 67 | 231 | 5.0 | 8.0 | 0.00 | 0.00 | 0.00 | 66 | 1008.3 |
| 20260504194321 | 67 | 217 | 3.0 | 8.0 | 0.00 | 0.00 | 0.00 | 65 | 1008.2 |
| 20260504193326 | 67 | 260 | 2.0 | 10.0 | 0.00 | 0.00 | 0.00 | 65 | 1008.3 |
| 20260504192328 | 67 | 235 | 5.0 | 8.0 | 0.00 | 0.00 | 0.00 | 64 | 1008.8 |
| 20260504191329 | 67 | 198 | 4.0 | 10.0 | 0.00 | 0.00 | 0.00 | 64 | 1009.0 |
| 20260504190315 | 68 | 209 | 5.0 | 15.0 | 0.00 | 0.00 | 0.00 | 64 | 1009.5 |
| 20260504185320 | 70 | 226 | 8.0 | 13.0 | 0.00 | 0.00 | 0.00 | 59 | 1009.6 |
| 20260504184330 | 70 | 248 | 10.0 | 18.0 | 0.00 | 0.00 | 0.00 | 57 | 1009.1 |
| 20260504183334 | 71 | 215 | 7.0 | 15.0 | 0.00 | 0.00 | 0.00 | 57 | 1009.2 |
| 20260504182337 | 71 | 233 | 6.0 | 12.0 | 0.00 | 0.00 | 0.00 | 56 | 1008.6 |
| 20260504180324 | 71 | 206 | 6.0 | 14.0 | 0.00 | 0.00 | 0.00 | 57 | 1008.5 |
| 20260504175349 | 71 | 193 | 5.0 | 11.0 | 0.00 | 0.00 | 0.00 | 55 | 1008.2 |
| 20260504174335 | 70 | 233 | 4.0 | 12.0 | 0.00 | 0.00 | 0.00 | 58 | 1008.4 |
| 20260504173319 | 69 | 250 | 5.0 | 12.0 | 0.00 | 0.00 | 0.00 | 58 | 1008.5 |
| 20260504172342 | 69 | 213 | 3.0 | 14.0 | 0.00 | 0.00 | 0.00 | 57 | 1008.6 |
| 20260504171329 | 69 | 220 | 7.0 | 11.0 | 0.00 | 0.00 | 0.00 | 56 | 1008.8 |
| 20260504170315 | 68 | 240 | 5.0 | 12.0 | 0.00 | 0.00 | 0.00 | 57 | 1008.8 |
| 20260504160325 | 67 | 205 | 4.0 | 12.0 | 0.00 | 0.00 | 0.00 | 58 | 1009.2 |
| 20260504150319 | 64 | 250 | 3.0 | 10.0 | 0.00 | 0.00 | 0.00 | 60 | 1009.6 |
| 20260504141328 | 62 | 146 | 3.0 | 9.0 | 0.00 | 0.00 | 0.00 | 63 | 1009.8 |
| 20260504140315 | 61 | 229 | 5.0 | 12.0 | 0.00 | 0.00 | 0.00 | 64 | 1010.1 |
| 20260504130329 | 57 | 135 | 2.0 | 7.0 | 0.00 | 0.00 | 0.00 | 67 | 1010.2 |
| 20260504110338 | 49 | 189 | 0.0 | 3.0 | 0.00 | 0.00 | 0.00 | 73 | 1010.3 |
| 20260504100334 | 48 | 224 | 0.0 | 1.0 | 0.00 | 0.00 | 0.00 | 74 | 1010.4 |
| 20260504081333 | 48 | 141 | 0.0 | 0.0 | 0.00 | 0.00 | 0.00 | 73 | 1011.1 |
| 20260504080319 | 48 | 141 | 0.0 | 0.0 | 0.00 | 0.00 | 0.00 | 71 | 1011.2 |
| 20260504070334 | 49 | 172 | 0.0 | 1.0 | 0.00 | 0.00 | 0.00 | 69 | 1011.4 |
| 20260504050324 | 53 | 160 | 1.0 | 3.0 | 0.00 | 0.00 | 0.00 | 60 | 1012.8 |
| 20260504045328 | 53 | 186 | 0.0 | 3.0 | 0.00 | 0.00 | 0.00 | 60 | 1012.8 |
| 20260504044353 | 54 | 204 | 0.0 | 5.0 | 0.00 | 0.00 | 0.00 | 59 | 1012.8 |
| 20260504043319 | 54 | 186 | 0.0 | 3.0 | 0.00 | 0.00 | 0.00 | 58 | 1012.9 |
| 20260504042345 | 54 | 186 | 1.0 | 5.0 | 0.00 | 0.00 | 0.00 | 57 | 1013.0 |
| 20260504041328 | 55 | 217 | 1.0 | 3.0 | 0.00 | 0.00 | 0.00 | 58 | 1013.0 |
| 20260504040314 | 55 | 170 | 1.0 | 5.0 | 0.00 | 0.00 | 0.00 | 57 | 1013.2 |
| 20260504035339 | 55 | 191 | 0.0 | 4.0 | 0.00 | 0.00 | 0.00 | 58 | 1013.2 |
| 20260504034321 | 55 | 122 | 1.0 | 4.0 | 0.00 | 0.00 | 0.00 | 58 | 1013.3 |
| 20260504033348 | 55 | 193 | 0.0 | 2.0 | 0.00 | 0.00 | 0.00 | 59 | 1013.4 |
| 20260504032335 | 55 | 163 | 0.0 | 4.0 | 0.00 | 0.00 | 0.00 | 60 | 1013.4 |
| 20260504031317 | 53 | 188 | 2.0 | 5.0 | 0.00 | 0.00 | 0.00 | 62 | 1013.5 |
| 20260504030344 | 51 | 81 | 0.0 | 1.0 | 0.00 | 0.00 | 0.00 | 75 | 1013.6 |
| 20260504025326 | 50 | 49 | 0.0 | 0.0 | 0.00 | 0.00 | 0.00 | 78 | 1013.6 |
| 20260504024331 | 50 | 49 | 0.0 | 0.0 | 0.00 | 0.00 | 0.00 | 78 | 1013.7 |
| 20260504023317 | 51 | 49 | 0.0 | 0.0 | 0.00 | 0.00 | 0.00 | 78 | 1013.8 |
| 20260504022322 | 51 | 49 | 0.0 | 0.0 | 0.00 | 0.00 | 0.00 | 77 | 1013.8 |
| 20260504021324 | 51 | 49 | 0.0 | 0.0 | 0.00 | 0.00 | 0.00 | 76 | 1013.8 |
| 20260504020333 | 51 | 49 | 0.0 | 0.0 | 0.00 | 0.00 | 0.00 | 76 | 1013.9 |
| 20260504015319 | 51 | 49 | 0.0 | 0.0 | 0.00 | 0.00 | 0.00 | 77 | 1013.8 |
| 20260504014322 | 51 | 49 | 0.0 | 0.0 | 0.00 | 0.00 | 0.00 | 75 | 1013.7 |
| 20260504013328 | 51 | 49 | 0.0 | 0.0 | 0.00 | 0.00 | 0.00 | 74 | 1013.7 |
| 20260504012352 | 52 | 49 | 0.0 | 0.0 | 0.00 | 0.00 | 0.00 | 72 | 1013.5 |
| 20260504011315 | 52 | 49 | 0.0 | 1.0 | 0.00 | 0.00 | 0.00 | 72 | 1013.6 |
| 20260504010321 | 52 | 49 | 0.0 | 1.0 | 0.00 | 0.00 | 0.00 | 71 | 1013.6 |
| 20260504005329 | 52 | 49 | 0.0 | 1.0 | 0.00 | 0.00 | 0.00 | 70 | 1013.6 |
| 20260504004355 | 52 | 49 | 0.0 | 1.0 | 0.00 | 0.00 | 0.00 | 69 | 1013.6 |
| 20260504003341 | 53 | 52 | 0.0 | 1.0 | 0.00 | 0.00 | 0.00 | 67 | 1013.4 |
| 20260504002344 | 53 | 52 | 0.0 | 1.0 | 0.00 | 0.00 | 0.00 | 66 | 1013.3 |
| 20260504001328 | 53 | 53 | 0.0 | 1.0 | 0.00 | 0.00 | 0.00 | 64 | 1013.5 |
| 20260504000333 | 53 | 6 | 1.0 | 1.0 | 0.00 | 0.00 | 0.00 | 64 | 1013.5 |
| 20260503235336 | 53 | 44 | 0.0 | 1.0 | 0.00 | 0.00 | 0.00 | 63 | 1013.4 |
| 20260503234320 | 54 | 360 | 0.0 | 0.0 | 0.00 | 0.00 | 0.00 | 63 | 1013.4 |
| 20260503233325 | 54 | 347 | 0.0 | 0.0 | 0.00 | 0.00 | 0.00 | 62 | 1013.2 |